Regional Weather Roundup
Issued by NWS

Home | Current Version | Previous Version | Text Only | Print | Product List | Glossary Off
Versions: 1 2 3 4 5 6 7 8 9 10 11 12 13 14 15 16 17 18 19 20 21 22 23 24 25 26 27 28 29 30 31 32 33 34 35 36 37 38 39 40 41 42 43 44 45 46 47 48 49 50

722
ASUS43 KOAX 282202
RWRNE

WEATHER ROUNDUP FOR NEBRASKA
NATIONAL WEATHER SERVICE OMAHA NE
500 PM CDT WED SEP 28 2016

NOTES: SATELLITE DATA IS BEING USED TO AUGMENT CLOUD COVER ABOVE
       12000 FEET.
       "FAIR" INDICATES FEW OR NO CLOUDS BELOW 12,000 FEET WITH NO
       SIGNIFICANT WEATHER AND/OR OBSTRUCTIONS TO VISIBILITY.

  * THESE STATIONS DO NOT REPORT WEATHER SUCH AS RAIN...SNOW OR FOG.

NEZ001>004-019>022-054>056-282300-
NEBRASKA PANHANDLE

CITY           SKY/WX    TMP DP  RH WIND       PRES   REMARKS
SCOTTSBLUFF    SUNNY     81  38  21 SE8       30.26F
ALLIANCE       SUNNY     80  39  23 NE6       30.25S
CHADRON        SUNNY     82  40  22 N8        30.23S
KIMBALL        SUNNY     76  42  29 N6        30.32S
SIDNEY         SUNNY     80  35  19 NE10      30.29S
$$

NEZ057>060-069>072-079>082-282300-
SOUTHWEST NEBRASKA

CITY           SKY/WX    TMP DP  RH WIND       PRES   REMARKS
NORTH PLATTE   SUNNY     78  42  27 NE9       30.24R
IMPERIAL       SUNNY     82  36  19 NE9       30.23F
LEXINGTON      HAZE      75  33  21 NE8       30.23R VSB 3/4
MCCOOK         SUNNY     81  42  25 NE8       30.21S
OGALLALA       SUNNY    N/A N/A N/A NE6       30.24S
$$

NEZ005>010-023>029-035>040-094-282300-
NORTH CENTRAL NEBRASKA

CITY           SKY/WX    TMP DP  RH WIND       PRES   REMARKS
VALENTINE      SUNNY     72  29  20 NE12      30.26S
AINSWORTH      SUNNY     70  32  24 NE8       30.27R
BROKEN BOW     SUNNY     74  24  15 N12       30.24R
O`NEILL        SUNNY     66  40  38 NE9       30.27R
ORD            SUNNY     70  41  34 NE8       30.24R
THEDFORD       SUNNY     75  42  30 NE13      30.26S
$$

NEZ041-046>049-061>064-073>077-083>087-282300-
SOUTH CENTRAL NEBRASKA

CITY           SKY/WX    TMP DP  RH WIND       PRES   REMARKS
GRAND ISLAND   SUNNY     69  41  36 NE13      30.23R
AURORA         SUNNY     68  42  38 NE10      30.23R
HASTINGS       SUNNY     71  41  33 NE13      30.24R
HEBRON         SUNNY     70  40  33 NE9       30.21R
HOLDREGE       SUNNY     73  27  18 N9G16     30.23R
KEARNEY *      SUNNY     72  39  30 N13G20    30.23R
YORK           SUNNY     66  43  42 NE13G20   30.23R
$$

NEZ011>018-030>034-042>045-282300-
NORTHEAST NEBRASKA

CITY           SKY/WX    TMP DP  RH WIND       PRES   REMARKS
NORFOLK        SUNNY     67  41  38 NE12      30.24R
ALBION         SUNNY     67  41  38 N12       30.25R
BLAIR          SUNNY     64  48  55 N12G17    30.23R
FREMONT        SUNNY     65  43  44 NE9G17    30.24R
TEKAMAH        SUNNY     65  45  48 N16       30.24R
WAYNE          SUNNY     65  46  50 N9        30.26R
$$

NEZ050>053-065>068-078-088>093-282300-
SOUTHEAST NEBRASKA

CITY           SKY/WX    TMP DP  RH WIND       PRES   REMARKS
LINCOLN        SUNNY     69  43  38 NE14G22   30.22R
OMAHA EPPLEY   MOSUNNY   66  46  48 NE13      30.22R
BEATRICE       SUNNY     68  45  42 N8G18     30.21R
FALLS CITY     SUNNY     67  46  47 N14G21    30.18R
NEBRASKA CITY  SUNNY     65  40  40 N10G18    30.21R
PLATTSMOUTH    MOSUNNY   65  43  43 N9        30.21S
$$

NEZ044-045-051>053-067-282300-
OMAHA AREA

CITY           SKY/WX    TMP DP  RH WIND       PRES   REMARKS
OMAHA EPPLEY   MOSUNNY   66  46  48 NE13      30.22R
BLAIR          SUNNY     64  48  55 N12G17    30.23R
FREMONT        SUNNY     65  43  44 NE9G17    30.24R
MILLARD        SUNNY     65  47  51 NW6G16    30.22R
OFFUTT AFB     MOSUNNY   65  48  53 NE9       30.21R
PLATTSMOUTH    MOSUNNY   65  43  43 N9        30.21S
WAHOO          FAIR      67  42  39 N10G17    30.22S
$$




USA.gov is the U.S. government's official web portal to all federal, state and local government web resources and services.